[Iaude] MPEC Y96: 2023 YK1 [a=2.30,e=0.60,i=32.2,H=17.9]

mpec at marsden.cfa.harvard.edu mpec at marsden.cfa.harvard.edu
Thu Dec 28 10:28:12 EST 2023


M.P.E.C. 2023-Y96                             Issued 2023 December 28, 15:26 UT

     The Minor Planet Electronic Circulars contain information on unusual
         minor planets, routine data on comets and natural satellites,
         and occasional editorial announcements.  They are published
    on behalf of Division F of the International Astronomical Union by the
          Minor Planet Center, Smithsonian Astrophysical Observatory,
                          Cambridge, MA 02138, U.S.A.
			  
             Prepared using the Tamkin Foundation Computer Network

                              MPC at CFA.HARVARD.EDU
            URL https://www.minorplanetcenter.net/    ISSN 1523-6714

                                    2023 YK1                                    


Observations:
     K23Y01K  C2023 06 28.49653122 24 55.993+20 19 35.73         21.81GVEY096F52
     K23Y01K  C2023 06 28.50883522 24 55.966+20 19 49.51         22.47GVEY096F52
     K23Y01K  C2023 06 28.52110022 24 55.922+20 20 02.58         22.60GVEY096F52
     K23Y01K  C2023 06 28.53337522 24 55.879+20 20 16.43         23.53GVEY096F52
     K23Y01K* C2023 12 26.21545121 56 13.482+22 57 27.89         20.17iXEY096F51
     K23Y01K  C2023 12 26.23647721 56 17.546+22 57 22.02         20.13iXEY096F51
     K23Y01K  C2023 12 26.24705321 56 19.592+22 57 19.09         20.08iXEY096F51
     K23Y01K 7C2023 12 26.83944321 58 16.437+22 54 39.43         19.1 GVEY096Z84
     K23Y01K 7C2023 12 26.84383921 58 17.300+22 54 37.91         19.7 GVEY096Z84
     K23Y01K 7C2023 12 26.84820721 58 18.183+22 54 36.75         19.3 GVEY096Z84
     K23Y01K  C2023 12 27.22127221 59 32.382+22 52 59.53         20.22iXEY096F51
     K23Y01K  C2023 12 27.22856721 59 33.824+22 52 57.63         20.08iXEY096F51
     K23Y01K  C2023 12 27.23117021 59 34.344+22 52 56.76         20.03iXEY096F51
     K23Y01K  C2023 12 27.23839721 59 35.765+22 52 54.70         20.07iXEY096F51
     K23Y01K  C2023 12 27.24101221 59 36.296+22 52 54.02         20.09iXEY096F51
     K23Y01K  C2023 12 27.24825521 59 37.699+22 52 51.92         19.93iXEY096F51
     K23Y01K  C2023 12 27.25091321 59 38.230+22 52 51.12         19.83iXEY096F51
     K23Y01K  C2023 12 28.21859922 02 53.165+22 48 25.40         19.99GVEY096F51
     K23Y01K  C2023 12 28.21941722 02 53.336+22 48 25.09         19.55GVEY096F51

Observer details:
F51 Pan-STARRS 1, Haleakala.  Observers J. Herman, T. Lowe, P. Minguez, A.
    Schultz, I. Smith.  Measurers K. Chambers, T. de Boer, J. Fairlamb, H.
    Gao, M. Huber, C.-C. Lin, E. Magnier, Y. Ramanjooloo, R. Wainscoat, R.
    Weryk.  1.8-m Ritchey-Chretien + CCD.
F52 Pan-STARRS 2, Haleakala.  Observers J. Herman, T. Lowe, P. Minguez, A.
    Schultz, I. Smith.  Measurers K. Chambers, T. de Boer, J. Fairlamb, H.
    Gao, M. Huber, C.-C. Lin, E. Magnier, Y. Ramanjooloo, R. Wainscoat, R.
    Weryk.  1.8-m Ritchey-Chretien + CCD.
Z84 Calar Alto-Schmidt.  Observers M. Micheli, F. Ocana, R. Kresken, L.
    Conversi.  Measurers F. Ocana, M. Micheli.  0.8-m f/3 Schmidt + CCD.

Orbital elements:
2023 YK1                                                 Earth MOID = 0.0674 AU
Epoch 2023 Sept. 13.0 TT = JDT 2460200.5                MPC                     
M 317.52578              (2000.0)            P               Q                  
n   0.28343273     Peri.  177.83334     -0.17741608     -0.83454789             
a   2.2952820      Node   282.05440     +0.89471679     +0.08395964             
e   0.6005847      Incl.   32.23193     +0.40988462     -0.54450032             
P   3.48           H   17.97          G   0.15           U   7                  
Residuals in seconds of arc
230628 F52  0.2-  0.0     231226 Z84  0.1-  0.2+    231227 F51  0.2+  0.0
230628 F52  0.0   0.2+    231226 Z84  0.1-  0.0     231227 F51  0.1-  0.0
230628 F52  0.0   0.2-    231226 Z84  0.2+  0.1+    231227 F51  0.1-  0.0
230628 F52  0.0   0.1+    231227 F51  0.1-  0.2-    231228 F51  0.1-  0.0
231226 F51  0.0   0.1-    231227 F51  0.0   0.0     231228 F51  0.0   0.1-
231226 F51  0.0   0.1-    231227 F51  0.1+  0.1-
231226 F51  0.1-  0.0     231227 F51  0.0   0.1-

Ephemeris:
2023 YK1                 a,e,i = 2.30, 0.60, 32                  q = 0.9168
Date    TT    R. A. (2000) Decl.     Delta      r    Elong.  Phase     V
2023 11 28    20 45 08.3 +25 04 32   1.0642  1.3284    80.6    47.1    20.5
...
2023 12 13    21 17 53.7 +23 51 07   1.0004  1.2053    74.8    52.0    20.3
...
2023 12 21    21 39 58.0 +23 19 05   0.9571  1.1433    72.2    55.0    20.2
...
2023 12 27    21 58 48.6 +22 54 00   0.9209  1.0995    70.4    57.4    20.1
2023 12 28    22 02 09.2 +22 49 27   0.9146  1.0924    70.2    57.9    20.1
2023 12 29    22 05 33.3 +22 44 45   0.9082  1.0855    69.9    58.3    20.0
...
2024 01 04    22 27 15.0 +22 12 02   0.8689  1.0457    68.4    61.0    19.9
...
2024 01 12    22 59 45.9 +21 09 48   0.8148  0.9990    66.7    64.7    19.8
...
2024 01 27    00 11 49.3 +17 27 41   0.7184  0.9368    64.5    71.6    19.6

A. U. Tomatic                (C) Copyright 2023 MPC           M.P.E.C. 2023-Y96





More information about the Iaude mailing list